Вернуться в каталог

BREEZE-M DEB

LostHEO
NORAD 48530·DEBRIS·🇷🇺 Russia

Запущен Feb 28, 2006 с Baikonur Cosmodrome

Loading…

Ближайшие Пролёты (ближайшие 24 часа)

TLE

УстаревшееSource: Space-Track

Эпоха: Jun 19, 2021, 00:55 UTC

1 48530U 06006DM  21170.03872854  .00002994  00000-0  27670-2 0  9998
2 48530  51.6514 311.6059 5026449 196.1426 139.0783  5.40870847114110

Отслеживайте BREEZE-M DEB в реальном времени с AllMySat

Download on the App Store